Mount Shasta, CA

4:08 AM PDT on August 25, 2016 (GMT -0700)
Mount Shasta

Weather History for KMHS - July, 2013

Change the Weather History Date:

Tuesday, July 2, 2013

  Actual Average Record
Temperature  
Mean Temperature 81 °F 66 °F  
Max Temperature 99 °F 82 °F 99 °F (2013)
Min Temperature 62 °F 49 °F 32 °F (1928)
Degree Days  
Heating Degree Days 0 2  
Month to date heating degree days 0 4  
Since 1 June heating degree days 87 146  
Since 1 July heating degree days 0 4  
Cooling Degree Days 16 3  
Month to date cooling degree days 29 6  
Year to date cooling degree days 137 51  
Since 1 June cooling degree days 128 43  
Growing Degree Days 30 (Base 50)    
Moisture  
Dew Point 55 °F    
Average Humidity 46    
Maximum Humidity 84    
Minimum Humidity 21    
Precipitation  
Precipitation 0.05 in 0.02 in 0.54 in (2000)
Month to date precipitation 0.05 0.04  
Year to date precipitation 7.13 26.64  
Sea Level Pressure  
Sea Level Pressure 30.03 in    
Wind  
Wind Speed 4 mph (NE)    
Max Wind Speed 10 mph    
Max Gust Speed 20 mph    
Visibility 10 miles    
Events      
T = Trace of Precipitation, MM = Missing Value Source: NWS Daily Summary

Daily Weather History Graph

Daily Weather History Graph

Search for Another Location

Airport or City:

Trip Planner

Search our weather history database for the weather conditions in past years. The results will help you decide how hot, cold, wet, or windy it might be!

Date:

Astronomy

Jul. 02, 2013 Rise Set
Actual Time 5:40 AM PDT 8:46 PM PDT
Civil Twilight 5:06 AM PDT 9:19 PM PDT
Nautical Twilight 4:23 AM PDT 10:02 PM PDT
Astronomical Twilight 3:32 AM PDT 10:53 PM PDT
Moon 1:48 AM PDT (7/2) 4:03 PM PDT (7/2)
Length of Visible Light 16h 12m
Length of Day
15h 05m
Waning Crescent, 25% of the Moon is Illuminated
Jul 2
Waning Crescent
Jul 8
New
Jul 15
First Quarter
Jul 22
Full
Jul 29
Last Quarter

Hourly Weather History & Observations

Time (PDT) Temp. Heat Index Dew Point Humidity Pressure Visibility Wind Dir Wind Speed Gust Speed Precip Events Conditions
12:56 AM 66.9 °F - 53.1 °F 61% 30.04 in 10.0 mi ENE 3.5 mph - N/A   Clear
1:56 AM 66.0 °F - 52.0 °F 60% 30.04 in 10.0 mi ENE 3.5 mph - N/A   Clear
2:56 AM 64.9 °F - 50.0 °F 58% 30.04 in 10.0 mi NE 4.6 mph - N/A   Clear
3:56 AM 64.9 °F - 48.9 °F 56% 30.05 in 10.0 mi Calm Calm - N/A   Clear
4:56 AM 63.0 °F - 48.9 °F 60% 30.05 in 10.0 mi Calm Calm - N/A   Clear
5:56 AM 63.0 °F - 51.1 °F 65% 30.06 in 10.0 mi ENE 3.5 mph - N/A   Clear
6:56 AM 68.0 °F - 54.0 °F 61% 30.06 in 10.0 mi Calm Calm - N/A   Clear
7:56 AM 75.9 °F - 59.0 °F 56% 30.05 in 10.0 mi Calm Calm - N/A   Clear
8:56 AM 81.0 °F 81.7 °F 61.0 °F 50% 30.05 in 10.0 mi WNW 4.6 mph - N/A   Clear
9:56 AM 82.9 °F 83.3 °F 61.0 °F 47% 30.04 in 10.0 mi Variable 4.6 mph - N/A   Clear
10:56 AM 88.0 °F 88.4 °F 62.1 °F 42% 30.04 in 10.0 mi Variable 3.5 mph - N/A   Clear
11:56 AM 91.9 °F 91.5 °F 60.1 °F 34% 30.04 in 10.0 mi Variable 4.6 mph - N/A   Clear
12:56 PM 95.0 °F 94.4 °F 59.0 °F 30% 30.04 in 10.0 mi Variable 5.8 mph - N/A   Clear
1:56 PM 97.0 °F 95.3 °F 55.9 °F 25% 30.02 in 10.0 mi Variable 3.5 mph 17.3 mph N/A   Clear
2:56 PM 97.0 °F 94.6 °F 53.1 °F 23% 30.01 in 10.0 mi Variable 3.5 mph - N/A   Clear
3:56 PM 98.1 °F 95.7 °F 53.1 °F 22% 29.98 in 10.0 mi Variable 4.6 mph - N/A   Clear
4:56 PM 97.0 °F - 50.0 °F 20% 29.97 in 10.0 mi Variable 6.9 mph - N/A   Clear
5:56 PM 93.9 °F 91.7 °F 54.0 °F 26% 29.97 in 10.0 mi Variable 4.6 mph - N/A   Clear
6:56 PM 91.0 °F - 52.0 °F 26% 29.99 in 10.0 mi NNW 10.4 mph 18.4 mph N/A   Clear
7:56 PM 90.0 °F - 46.9 °F 23% 30.01 in 10.0 mi Variable 5.8 mph - N/A   Partly Cloudy
8:56 PM 86.0 °F 84.5 °F 55.0 °F 35% 30.04 in 10.0 mi SE 3.5 mph - N/A   Scattered Clouds
10:56 PM 66.0 °F - 64.9 °F 96% 30.11 in 10.0 mi NE 3.5 mph - 0.00 in   Partly Cloudy
11:56 PM 69.1 °F - 64.0 °F 84% 30.08 in 10.0 mi NE 5.8 mph - N/A   Clear